Regional Weather Roundup
Issued by NWS Midland/Odessa, TX

Skip options and go directly to product.
Home | Oldest Version | Next Version | Current Version | All | Text Only | Save Text | Print | Product List | Glossary On

Skip product version selection by date and time.   
029
ASUS44 KMAF 291902
RWRMAF
MIDLAND AREA WEATHER ROUNDUP
NATIONAL WEATHER SERVICE MIDLAND TX
200 PM CDT TUE JUL 29 2014

...IN SOUTHWEST TEXAS AND SOUTHEAST NEW MEXICO...

CITY           SKY/WX    TMP DP  RH WIND       PRES   REMARKS
ALPINE         CLOUDY    89  50  26 SE3       30.28F
ANDREWS        PTSUNNY   88  60  38 E5        30.18F
ARTESIA        CLOUDY    77  64  65 E9        30.21F
BIG SPRING     MOSUNNY   94  58  29 SE10      30.16F
CARLSBAD       MOSUNNY   89  60  37 VRB6      30.17F
DRYDEN           N/A    100  58  24 S12G22    30.08F
FORT STOCKTON  SUNNY     95  45  17 SE9G21    30.13F
GUAD PASS      MOSUNNY   80  58  46 NE18G24   30.32F
HOBBS          MOSUNNY   81  61  50 N8        30.25F
MARFA          SUNNY     84  50  30 W3        30.28F
MIDLAND AIRPK  MOSUNNY   95  56  26 S9        30.15F
MIDLAND INTL   PTSUNNY   92  57  30 SE9G18    30.14F
ODESSA         MOSUNNY   92  55  28 VRB7      30.16F
PECOS          MOSUNNY   95  53  24 E3        30.11F
PRESIDIO       FAIR      94  52  24 SW3       30.10F
SEMINOLE       MOSUNNY   83  59  43 E6        30.23F
SNYDER         MOSUNNY   88  64  44 CALM      30.16F
WINK           MOSUNNY   96  51  21 E10       30.11F
$$
...OTHER STATIONS IN TEXAS...

CITY           SKY/WX    TMP DP  RH WIND       PRES   REMARKS
ABILENE        MOSUNNY   91  66  43 E8        30.13F
AMARILLO       CLOUDY    75  62  64 SW12      30.24F
AUSTIN         PTSUNNY   95  65  37 CALM      30.06F
BROWNSVILLE    MOSUNNY   95  72  47 S12G20    30.04F HX 103
CORPUS CHRISTI MOSUNNY   97  70  41 SE16G22   30.04F HX 103
DALLAS FTW     LGT RAIN  81  64  56 SW8       30.15F
DEL RIO        SUNNY     97  58  27 SE15      30.03F
EL PASO        PTSUNNY   75  65  70 N8        30.21F
HOUSTON INT    CLOUDY    84  75  74 NE18      30.07S THUNDER
LUBBOCK        CLOUDY    73  64  73 NW6       30.25F
SAN ANGELO     MOSUNNY   95  61  32 S7        30.10F
SAN ANTONIO    MOSUNNY   95  62  33 SE9       30.08F
WACO           PTSUNNY   91  69  48 NE12      30.11F
WICHITA FALLS  NOT AVBL
$$
...OTHER LOCATIONS IN NEW MEXICO...

CITY           SKY/WX    TMP DP  RH WIND       PRES   REMARKS
ALAMAGORDO     MOSUNNY   82  59  44 S9G16     30.24F
ALBUQUERQUE    MOSUNNY   79  58  48 S8        30.27F
CANNON AFB     NOT AVBL
CLOVIS         NOT AVBL
HOLLOMAN AFB   MOSUNNY   81  63  54 SW8       30.21F
ROSWELL        CLOUDY    70  65  84 SE7       30.23F
RUIDOSO        PTSUNNY   64  61  88 SE9       30.41F
SANTA FE       MOSUNNY   74  59  59 SW7       30.32F
TRUTH OR CONSE MOSUNNY   87  57  35 VRB7      30.22F
TUCUMCARI      PTSUNNY   76  63  64 SW15      30.21F
$$

USA.gov is the U.S. government's official web portal to all federal, state and local government web resources and services.